Lumberton, NC

4:34 PM EDT on September 28, 2016 (GMT -0400)
Lumberton Municipal

Weather History for KLBT - January, 2015

Change the Weather History Date:

Saturday, January 17, 2015

  Actual Average Record
Temperature  
Mean Temperature 44 °F 43 °F  
Max Temperature 57 °F 54 °F 70 °F (2006)
Min Temperature 31 °F 33 °F 13 °F (2009)
Degree Days  
Heating Degree Days 21 22  
Month to date heating degree days 384 373  
Since 1 July heating degree days 1437 1423  
Cooling Degree Days 0 0  
Month to date cooling degree days 0 0  
Year to date cooling degree days 0 0  
Moisture  
Dew Point 34 °F    
Average Humidity 68    
Maximum Humidity 92    
Minimum Humidity 43    
Precipitation  
Precipitation 0.00 in 0.08 in 0.55 in (2013)
Month to date precipitation 2.43 1.45  
Year to date precipitation 2.43 1.45  
Sea Level Pressure  
Sea Level Pressure 30.27 in    
Wind  
Wind Speed 3 mph (East)    
Max Wind Speed 12 mph    
Max Gust Speed 17 mph    
Visibility 10 miles    
Events      
T = Trace of Precipitation, MM = Missing Value Source: NWS Daily Summary

Daily Weather History Graph

Daily Weather History Graph

Search for Another Location

Airport or City:

Trip Planner

Search our weather history database for the weather conditions in past years. The results will help you decide how hot, cold, wet, or windy it might be!

Date:

Astronomy

Jan. 17, 2015 Rise Set
Actual Time 7:22 AM EST 5:30 PM EST
Civil Twilight 6:55 AM EST 5:57 PM EST
Nautical Twilight 6:24 AM EST 6:28 PM EST
Astronomical Twilight 5:54 AM EST 6:58 PM EST
Moon 4:17 AM EST (1/17) 2:54 PM EST (1/17)
Length of Visible Light 11h 02m
Length of Day
10h 08m
Waning Crescent, 11% of the Moon is Illuminated
Jan 17
Waning Crescent
Jan 20
New
Jan 26
First Quarter
Feb 3
Full
Feb 11
Last Quarter

Hourly Weather History & Observations

Time (EST) Temp. Windchill Dew Point Humidity Pressure Visibility Wind Dir Wind Speed Gust Speed Precip Events Conditions
12:54 AM 33.1 °F - 30.9 °F 92% 30.22 in 10.0 mi Calm Calm - N/A   Clear
1:54 AM 33.1 °F - 30.9 °F 92% 30.24 in 10.0 mi Calm Calm - N/A   Clear
2:54 AM 33.1 °F - 30.9 °F 92% 30.25 in 10.0 mi Calm Calm - N/A   Clear
3:54 AM 33.1 °F - 30.9 °F 92% 30.26 in 9.0 mi Calm Calm - N/A   Clear
4:54 AM 32.0 °F - 28.9 °F 88% 30.28 in 10.0 mi Calm Calm - N/A   Clear
5:54 AM 30.9 °F - 28.9 °F 92% 30.30 in 9.0 mi Calm Calm - N/A   Clear
6:54 AM 32.0 °F 26.4 °F 28.0 °F 85% 30.30 in 10.0 mi NE 5.8 mph - N/A   Clear
7:54 AM 36.0 °F 32.1 °F 28.9 °F 76% 30.33 in 10.0 mi NE 4.6 mph - N/A   Clear
8:54 AM 39.0 °F 34.0 °F 30.0 °F 70% 30.35 in 10.0 mi ENE 6.9 mph - N/A   Clear
9:54 AM 43.0 °F 37.2 °F 30.0 °F 60% 30.37 in 10.0 mi ENE 10.4 mph - N/A   Clear
10:54 AM 46.0 °F 41.9 °F 30.9 °F 56% 30.37 in 10.0 mi East 8.1 mph - N/A   Clear
11:54 AM 50.0 °F - 33.1 °F 52% 30.35 in 10.0 mi Variable 5.8 mph - N/A   Clear
12:54 PM 52.0 °F - 34.0 °F 50% 30.32 in 10.0 mi SE 6.9 mph - N/A   Clear
1:54 PM 55.0 °F - 34.0 °F 45% 30.30 in 10.0 mi SE 4.6 mph - N/A   Clear
2:54 PM 57.0 °F - 35.1 °F 44% 30.27 in 10.0 mi ESE 5.8 mph - N/A   Clear
3:54 PM 57.0 °F - 35.1 °F 44% 30.27 in 10.0 mi SE 4.6 mph - N/A   Clear
4:54 PM 55.0 °F - 37.9 °F 53% 30.26 in 10.0 mi SE 5.8 mph - N/A   Clear
5:54 PM 51.1 °F - 39.0 °F 63% 30.25 in 10.0 mi Calm Calm - N/A   Clear
6:54 PM 46.9 °F - 41.0 °F 80% 30.23 in 10.0 mi Calm Calm - N/A   Scattered Clouds
7:54 PM 45.0 °F - 39.9 °F 82% 30.23 in 10.0 mi Calm Calm - N/A   Partly Cloudy
8:54 PM 46.0 °F - 41.0 °F 83% 30.21 in 10.0 mi Calm Calm - N/A   Mostly Cloudy
9:54 PM 46.0 °F - 41.0 °F 83% 30.20 in 10.0 mi Calm Calm - N/A   Mostly Cloudy
10:54 PM 46.0 °F - 39.9 °F 79% 30.18 in 10.0 mi Calm Calm - N/A   Scattered Clouds
11:54 PM 46.0 °F - 39.9 °F 79% 30.16 in 10.0 mi Calm Calm - N/A   Overcast